| time (UTC) | temp F | wind direction | speed knots | gust knots | rain 1hr in | rain 24hr in | rain mn in | humidity % | barometer mb |
| 20260510202055 | 82 | 184 | 1.7 | 8.7 | 0.00 | 0.12 | 0.01 | 72 | 1014.6 |
| 20260510201601 | 82 | 167 | 3.5 | 10.4 | 0.00 | 0.12 | 0.01 | 72 | 1014.5 |
| 20260510201051 | 82 | 136 | 4.3 | 11.3 | 0.00 | 0.12 | 0.01 | 71 | 1014.5 |
| 20260510200551 | 82 | 140 | 5.2 | 11.3 | 0.00 | 0.12 | 0.01 | 71 | 1014.4 |
| 20260510200053 | 83 | 151 | 5.2 | 8.7 | 0.00 | 0.12 | 0.01 | 70 | 1014.4 |
| 20260510195555 | 82 | 132 | 3.5 | 8.7 | 0.00 | 0.22 | 0.01 | 72 | 1014.5 |
| 20260510195050 | 82 | 166 | 3.5 | 9.6 | 0.00 | 0.22 | 0.01 | 73 | 1014.5 |
| 20260510194604 | 82 | 192 | 3.5 | 9.6 | 0.00 | 0.22 | 0.01 | 74 | 1014.5 |
| 20260510194052 | 82 | 144 | 3.5 | 10.4 | 0.00 | 0.22 | 0.01 | 75 | 1014.6 |
| 20260510193552 | 81 | 155 | 3.5 | 10.4 | 0.00 | 0.22 | 0.01 | 75 | 1014.6 |
| 20260510193053 | 81 | 148 | 1.7 | 7.8 | 0.00 | 0.22 | 0.01 | 76 | 1014.6 |
| 20260510192550 | 81 | 134 | 3.5 | 7.8 | 0.00 | 0.22 | 0.01 | 75 | 1014.7 |
| 20260510192052 | 81 | 173 | 2.6 | 7.8 | 0.00 | 0.22 | 0.01 | 76 | 1014.7 |
| 20260510191605 | 82 | 109 | 3.5 | 10.4 | 0.00 | 0.22 | 0.01 | 75 | 1014.7 |
| 20260510191053 | 82 | 171 | 4.3 | 10.4 | 0.00 | 0.22 | 0.01 | 74 | 1014.7 |
| 20260510190556 | 82 | 191 | 2.6 | 7.8 | 0.00 | 0.22 | 0.01 | 75 | 1014.7 |
| 20260510190107 | 82 | 117 | 3.5 | 7.8 | 0.00 | 0.22 | 0.01 | 75 | 1014.7 |
| 20260510185553 | 82 | 132 | 2.6 | 9.6 | 0.00 | 0.31 | 0.01 | 74 | 1014.7 |
| 20260510185053 | 82 | 136 | 3.5 | 9.6 | 0.00 | 0.31 | 0.01 | 75 | 1014.7 |
| 20260510184556 | 82 | 84 | 3.5 | 9.6 | 0.00 | 0.31 | 0.01 | 73 | 1014.7 |
| 20260510184053 | 82 | 190 | 2.6 | 13.0 | 0.00 | 0.31 | 0.01 | 75 | 1014.7 |
| 20260510183553 | 82 | 134 | 5.2 | 13.0 | 0.00 | 0.31 | 0.01 | 74 | 1014.8 |
| 20260510183057 | 82 | 113 | 2.6 | 10.4 | 0.00 | 0.31 | 0.01 | 73 | 1014.9 |
| 20260510182552 | 82 | 109 | 4.3 | 9.6 | 0.00 | 0.31 | 0.01 | 73 | 1015.0 |
| 20260510182052 | 82 | 145 | 1.7 | 7.0 | 0.00 | 0.31 | 0.01 | 72 | 1015.1 |
| 20260510181557 | 82 | 96 | 2.6 | 6.1 | 0.00 | 0.31 | 0.01 | 73 | 1015.2 |
| 20260510181053 | 82 | 149 | 1.7 | 7.8 | 0.00 | 0.31 | 0.01 | 74 | 1015.3 |
| 20260510180553 | 82 | 15 | 1.7 | 7.8 | 0.00 | 0.31 | 0.01 | 73 | 1015.5 |
| 20260510180432 | 82 | 98 | 1.7 | 8.7 | 0.00 | 0.31 | 0.01 | 73 | 1015.7 |
| 20260510175553 | 81 | 157 | 1.7 | 8.7 | 0.00 | 0.52 | 0.01 | 75 | 1015.7 |
| 20260510175052 | 81 | 74 | 4.3 | 9.6 | 0.00 | 0.52 | 0.01 | 75 | 1015.8 |
| 20260510174553 | 81 | 101 | 3.5 | 9.6 | 0.00 | 0.52 | 0.01 | 76 | 1015.8 |
| 20260510174054 | 80 | 184 | 4.3 | 9.6 | 0.00 | 0.52 | 0.01 | 76 | 1015.8 |
| 20260510173558 | 81 | 186 | 2.6 | 9.6 | 0.00 | 0.52 | 0.01 | 77 | 1015.8 |
| 20260510173053 | 81 | 138 | 0.9 | 7.8 | 0.00 | 0.52 | 0.01 | 77 | 1015.8 |
| 20260510172553 | 81 | 117 | 1.7 | 7.8 | 0.00 | 0.52 | 0.01 | 78 | 1015.8 |
| 20260510172054 | 81 | 155 | 3.5 | 7.8 | 0.00 | 0.52 | 0.01 | 75 | 1015.9 |
| 20260510171556 | 81 | 147 | 2.6 | 10.4 | 0.00 | 0.52 | 0.01 | 77 | 1016.0 |
| 20260510171052 | 81 | 113 | 1.7 | 10.4 | 0.00 | 0.52 | 0.01 | 78 | 1016.1 |
| 20260510170552 | 80 | 65 | 1.7 | 7.8 | 0.00 | 0.52 | 0.01 | 79 | 1016.1 |
| 20260510170052 | 80 | 0 | 2.6 | 7.8 | 0.00 | 0.52 | 0.01 | 79 | 1016.3 |
| 20260510165553 | 80 | 117 | 2.6 | 7.8 | 0.00 | 0.87 | 0.01 | 79 | 1016.3 |
| 20260510165052 | 80 | 61 | 0.9 | 7.8 | 0.00 | 0.87 | 0.01 | 79 | 1016.2 |
| 20260510164554 | 80 | 75 | 1.7 | 7.8 | 0.00 | 0.87 | 0.01 | 79 | 1016.2 |
| 20260510164052 | 80 | 56 | 1.7 | 7.8 | 0.00 | 0.87 | 0.01 | 78 | 1016.2 |
| 20260510163552 | 80 | 140 | 1.7 | 7.0 | 0.00 | 0.87 | 0.01 | 76 | 1016.2 |
| 20260510163056 | 80 | 136 | 1.7 | 7.0 | 0.00 | 0.87 | 0.01 | 78 | 1016.2 |
| 20260510162552 | 80 | 62 | 1.7 | 7.0 | 0.00 | 0.87 | 0.01 | 79 | 1016.2 |
| 20260510162053 | 80 | 166 | 1.7 | 6.1 | 0.00 | 0.87 | 0.01 | 77 | 1016.3 |
| 20260510161600 | 79 | 121 | 2.6 | 7.8 | 0.00 | 0.87 | 0.01 | 78 | 1016.3 |
| 20260510161053 | 79 | 179 | 2.6 | 8.7 | 0.00 | 0.87 | 0.01 | 79 | 1016.4 |
| 20260510160554 | 78 | 107 | 1.7 | 8.7 | 0.00 | 0.87 | 0.01 | 80 | 1016.2 |
| 20260510160132 | 78 | 87 | 3.5 | 7.8 | 0.00 | 0.87 | 0.01 | 79 | 1016.1 |
| 20260510155552 | 78 | 136 | 0.0 | 7.8 | 0.00 | 1.09 | 0.01 | 83 | 1016.0 |
| 20260510155053 | 78 | 63 | 1.7 | 8.7 | 0.00 | 1.09 | 0.01 | 82 | 1015.9 |
| 20260510154557 | 78 | 117 | 4.3 | 8.7 | 0.00 | 1.09 | 0.01 | 81 | 1015.9 |
| 20260510154052 | 78 | 125 | 2.6 | 7.8 | 0.00 | 1.09 | 0.01 | 81 | 1015.9 |
| 20260510153552 | 77 | 171 | 2.6 | 7.8 | 0.00 | 1.09 | 0.01 | 82 | 1015.9 |
| 20260510153055 | 77 | 0 | 0.9 | 7.8 | 0.00 | 1.09 | 0.01 | 82 | 1016.0 |
| 20260510152553 | 77 | 116 | 1.7 | 7.0 | 0.00 | 1.09 | 0.01 | 84 | 1016.1 |
| 20260510152053 | 76 | 123 | 0.9 | 7.8 | 0.00 | 1.09 | 0.01 | 85 | 1016.1 |
| 20260510151558 | 76 | 131 | 2.6 | 7.8 | 0.00 | 1.09 | 0.01 | 87 | 1016.1 |
| 20260510151053 | 75 | 64 | 0.0 | 5.2 | 0.00 | 1.09 | 0.01 | 88 | 1016.1 |
| 20260510150553 | 75 | 31 | 1.7 | 5.2 | 0.00 | 1.09 | 0.01 | 87 | 1016.2 |
| 20260510150057 | 75 | 78 | 0.9 | 6.1 | 0.00 | 1.09 | 0.01 | 87 | 1016.3 |
| 20260510145556 | 75 | 70 | 0.9 | 7.0 | 0.00 | 1.14 | 0.01 | 87 | 1016.3 |
| 20260510145053 | 75 | 30 | 2.6 | 7.0 | 0.00 | 1.14 | 0.01 | 88 | 1016.3 |
| 20260510144610 | 75 | 65 | 1.7 | 6.1 | 0.00 | 1.14 | 0.01 | 90 | 1016.4 |
| 20260510144053 | 74 | 0 | 0.9 | 6.1 | 0.00 | 1.14 | 0.01 | 91 | 1016.4 |
| 20260510143553 | 74 | 86 | 0.9 | 10.4 | 0.00 | 1.14 | 0.01 | 93 | 1016.2 |
| 20260510143056 | 73 | 165 | 3.5 | 10.4 | 0.00 | 1.14 | 0.01 | 94 | 1016.1 |
| 20260510142552 | 72 | 115 | 2.6 | 7.8 | 0.00 | 1.14 | 0.01 | 95 | 1016.1 |
| 20260510142053 | 72 | 350 | 1.7 | 6.1 | 0.00 | 1.14 | 0.01 | 96 | 1016.2 |
| 20260510141557 | 72 | 39 | 0.9 | 7.0 | 0.00 | 1.14 | 0.01 | 97 | 1016.1 |
| 20260510141053 | 72 | 26 | 1.7 | 8.7 | 0.00 | 1.14 | 0.01 | 98 | 1016.1 |
| 20260510140552 | 71 | 98 | 1.7 | 8.7 | 0.00 | 1.14 | 0.01 | 98 | 1016.0 |
| 20260510135553 | 71 | 30 | 1.7 | 5.2 | 0.00 | 1.89 | 0.01 | 98 | 1016.0 |
| 20260510135055 | 71 | 0 | 0.9 | 3.5 | 0.00 | 1.89 | 0.01 | 98 | 1016.1 |
| 20260510134605 | 70 | 101 | 1.7 | 3.5 | 0.00 | 1.89 | 0.01 | 98 | 1016.0 |
| 20260510134053 | 70 | 62 | 0.9 | 3.5 | 0.00 | 1.89 | 0.01 | 98 | 1016.1 |
| 20260510133552 | 70 | 99 | 0.0 | 3.5 | 0.00 | 1.89 | 0.01 | 98 | 1016.1 |
| 20260510133054 | 69 | 25 | 0.0 | 3.5 | 0.00 | 1.89 | 0.01 | 98 | 1016.0 |
| 20260510132553 | 69 | 19 | 0.9 | 3.5 | 0.00 | 1.89 | 0.01 | 98 | 1016.0 |
| 20260510132053 | 69 | 60 | 0.9 | 3.5 | 0.00 | 1.89 | 0.01 | 98 | 1015.8 |
| 20260510131554 | 69 | 0 | 0.0 | 2.6 | 0.00 | 1.89 | 0.01 | 98 | 1015.7 |
| 20260510131052 | 69 | 126 | 0.0 | 2.6 | 0.00 | 1.89 | 0.01 | 98 | 1015.7 |
| 20260510130554 | 69 | 154 | 0.0 | 3.5 | 0.00 | 1.89 | 0.01 | 98 | 1015.6 |
| 20260510130056 | 69 | 21 | 0.9 | 4.3 | 0.00 | 1.89 | 0.01 | 98 | 1015.4 |
| 20260510125554 | 68 | 38 | 0.9 | 4.3 | 0.00 | 1.89 | 0.01 | 98 | 1015.4 |
| 20260510125053 | 68 | 41 | 0.9 | 3.5 | 0.00 | 1.89 | 0.01 | 98 | 1015.3 |
| 20260510124554 | 68 | 49 | 0.9 | 3.5 | 0.00 | 1.89 | 0.01 | 98 | 1015.3 |
| 20260510124052 | 68 | 40 | 1.7 | 3.5 | 0.00 | 1.89 | 0.01 | 98 | 1015.1 |
| 20260510123552 | 68 | 44 | 0.9 | 3.5 | 0.00 | 1.89 | 0.01 | 98 | 1015.0 |
| 20260510123053 | 68 | 51 | 0.9 | 2.6 | 0.00 | 1.89 | 0.01 | 98 | 1014.8 |
| 20260510122553 | 68 | 0 | 0.0 | 1.7 | 0.00 | 1.89 | 0.01 | 98 | 1014.8 |
| 20260510122053 | 68 | 0 | 0.0 | 1.7 | 0.00 | 1.89 | 0.01 | 98 | 1014.7 |
| 20260510121553 | 68 | 0 | 0.0 | 1.7 | 0.00 | 1.89 | 0.01 | 98 | 1014.7 |
| 20260510121052 | 68 | 121 | 0.0 | 2.6 | 0.00 | 1.89 | 0.01 | 98 | 1014.6 |
| 20260510120553 | 68 | 121 | 0.0 | 2.6 | 0.00 | 1.89 | 0.01 | 98 | 1014.6 |
| 20260510120053 | 68 | 0 | 0.0 | 2.6 | 0.00 | 1.89 | 0.01 | 98 | 1014.6 |
| 20260510115552 | 68 | 0 | 0.0 | 2.6 | 0.00 | 1.89 | 0.01 | 98 | 1014.5 |
| 20260510115053 | 67 | 107 | 0.0 | 1.7 | 0.00 | 1.89 | 0.01 | 98 | 1014.3 |
| 20260510114553 | 67 | 88 | 0.0 | 2.6 | 0.00 | 1.89 | 0.01 | 98 | 1014.3 |
| 20260510114053 | 67 | 0 | 0.0 | 3.5 | 0.00 | 1.89 | 0.01 | 98 | 1014.3 |
| 20260510113552 | 67 | 0 | 0.9 | 3.5 | 0.00 | 1.89 | 0.01 | 98 | 1014.1 |
| 20260510113051 | 67 | 98 | 0.0 | 7.0 | 0.00 | 1.89 | 0.01 | 98 | 1013.9 |
| 20260510112552 | 67 | 130 | 0.9 | 7.0 | 0.00 | 1.89 | 0.01 | 98 | 1013.9 |
| 20260510112055 | 67 | 0 | 1.7 | 7.0 | 0.00 | 1.89 | 0.01 | 98 | 1013.8 |
| 20260510111607 | 67 | 96 | 0.9 | 3.5 | 0.00 | 1.89 | 0.01 | 98 | 1013.8 |
| 20260510111052 | 67 | 117 | 1.7 | 6.1 | 0.00 | 1.89 | 0.01 | 98 | 1013.8 |
| 20260510110555 | 67 | 105 | 0.9 | 6.1 | 0.00 | 1.89 | 0.01 | 97 | 1013.8 |
| 20260510110054 | 67 | 109 | 0.9 | 5.2 | 0.00 | 1.89 | 0.01 | 97 | 1013.5 |
| 20260510105552 | 67 | 0 | 0.9 | 5.2 | 0.00 | 1.89 | 0.01 | 98 | 1013.6 |
| 20260510105052 | 67 | 117 | 0.0 | 5.2 | 0.00 | 1.89 | 0.01 | 98 | 1013.5 |
| 20260510104552 | 67 | 140 | 1.7 | 5.2 | 0.00 | 1.89 | 0.01 | 97 | 1013.4 |
| 20260510104051 | 67 | 123 | 1.7 | 5.2 | 0.00 | 1.89 | 0.01 | 97 | 1013.3 |
| 20260510103554 | 67 | 127 | 0.0 | 2.6 | 0.00 | 1.89 | 0.01 | 97 | 1013.1 |
| 20260510103052 | 67 | 124 | 0.9 | 3.5 | 0.00 | 1.89 | 0.01 | 98 | 1013.0 |
| 20260510102553 | 67 | 0 | 0.0 | 3.5 | 0.00 | 1.89 | 0.01 | 98 | 1013.0 |
| 20260510102053 | 67 | 113 | 0.0 | 2.6 | 0.00 | 1.89 | 0.01 | 98 | 1012.9 |
| 20260510101553 | 67 | 0 | 0.0 | 1.7 | 0.00 | 1.89 | 0.01 | 98 | 1012.8 |
| 20260510101055 | 67 | 0 | 0.0 | 1.7 | 0.00 | 1.89 | 0.01 | 98 | 1012.7 |
| 20260510100553 | 67 | 0 | 0.0 | 1.7 | 0.01 | 1.89 | 0.01 | 98 | 1012.6 |
| 20260510100053 | 67 | 0 | 0.0 | 0.9 | 0.01 | 1.89 | 0.01 | 98 | 1012.6 |
| 20260510095550 | 67 | 0 | 0.0 | 1.7 | 0.01 | 1.89 | 0.01 | 98 | 1012.6 |
| 20260510095050 | 67 | 0 | 0.0 | 1.7 | 0.01 | 1.89 | 0.01 | 98 | 1012.5 |
| 20260510094556 | 67 | 0 | 0.0 | 2.6 | 0.01 | 1.89 | 0.01 | 98 | 1012.6 |
| 20260510094051 | 67 | 0 | 0.0 | 2.6 | 0.01 | 1.89 | 0.01 | 98 | 1012.7 |
| 20260510093551 | 67 | 0 | 0.0 | 1.7 | 0.01 | 1.89 | 0.01 | 98 | 1012.8 |
| 20260510093104 | 67 | 0 | 0.0 | 1.7 | 0.01 | 1.89 | 0.01 | 97 | 1012.6 |
| 20260510092552 | 67 | 0 | 0.9 | 1.7 | 0.01 | 1.89 | 0.01 | 98 | 1012.6 |
| 20260510092051 | 67 | 0 | 0.0 | 1.7 | 0.01 | 1.89 | 0.01 | 97 | 1012.5 |
| 20260510091553 | 67 | 0 | 0.0 | 1.7 | 0.01 | 1.89 | 0.01 | 97 | 1012.4 |
| 20260510091052 | 67 | 0 | 0.0 | 3.5 | 0.01 | 1.89 | 0.01 | 97 | 1012.4 |
| 20260510090551 | 67 | 53 | 0.0 | 3.5 | 0.00 | 1.88 | 0.00 | 97 | 1012.3 |
| 20260510090104 | 67 | 55 | 0.9 | 3.5 | 0.00 | 1.88 | 0.00 | 97 | 1012.3 |
| 20260510085551 | 67 | 54 | 0.9 | 2.6 | 0.00 | 1.88 | 0.00 | 97 | 1012.4 |
| 20260510085051 | 67 | 62 | 0.9 | 1.7 | 0.00 | 1.88 | 0.00 | 98 | 1012.4 |
| 20260510084552 | 67 | 0 | 0.0 | 1.7 | 0.00 | 1.88 | 0.00 | 98 | 1012.4 |
| 20260510084051 | 67 | 43 | 0.0 | 2.6 | 0.00 | 1.88 | 0.00 | 97 | 1012.4 |
| 20260510083553 | 68 | 43 | 0.0 | 4.3 | 0.00 | 1.88 | 0.00 | 98 | 1012.4 |
| 20260510083105 | 68 | 50 | 0.9 | 4.3 | 0.00 | 1.88 | 0.00 | 98 | 1012.3 |
| 20260510082551 | 67 | 39 | 1.7 | 3.5 | 0.00 | 1.88 | 0.00 | 98 | 1012.4 |
| 20260510082051 | 67 | 45 | 0.9 | 3.5 | 0.00 | 1.88 | 0.00 | 98 | 1012.4 |
| 20260510081608 | 67 | 0 | 0.0 | 1.7 | 0.00 | 1.88 | 0.00 | 98 | 1012.3 |
| 20260510081051 | 66 | 0 | 0.0 | 0.9 | 0.00 | 1.88 | 0.00 | 97 | 1012.3 |
| 20260510080550 | 66 | 0 | 0.0 | 0.9 | 0.00 | 1.88 | 0.00 | 98 | 1012.2 |
| 20260510080056 | 66 | 0 | 0.0 | 0.9 | 0.00 | 1.88 | 0.00 | 97 | 1012.1 |
| 20260510075550 | 66 | 0 | 0.0 | 0.9 | 0.00 | 1.88 | 0.00 | 97 | 1012.1 |
| 20260510075050 | 66 | 0 | 0.0 | 0.0 | 0.00 | 1.88 | 0.00 | 97 | 1012.1 |
| 20260510074558 | 66 | 0 | 0.0 | 0.9 | 0.00 | 1.88 | 0.00 | 97 | 1012.1 |
| 20260510074054 | 66 | 0 | 0.0 | 1.7 | 0.00 | 1.88 | 0.00 | 97 | 1012.1 |
| 20260510073551 | 66 | 69 | 0.0 | 1.7 | 0.00 | 1.88 | 0.00 | 97 | 1012.1 |
| 20260510073054 | 66 | 69 | 0.0 | 0.9 | 0.00 | 1.88 | 0.00 | 97 | 1012.0 |
| 20260510072551 | 66 | 0 | 0.0 | 0.9 | 0.00 | 1.88 | 0.00 | 97 | 1011.9 |
| 20260510072054 | 66 | 0 | 0.0 | 1.7 | 0.00 | 1.88 | 0.00 | 97 | 1011.8 |
| 20260510071555 | 66 | 0 | 0.0 | 1.7 | 0.00 | 1.88 | 0.00 | 97 | 1011.9 |
| 20260510071050 | 66 | 69 | 0.0 | 0.9 | 0.00 | 1.88 | 0.00 | 97 | 1011.8 |
| 20260510070551 | 66 | 69 | 0.0 | 1.7 | 0.00 | 1.88 | 0.00 | 97 | 1012.0 |
| 20260510070055 | 66 | 0 | 0.0 | 1.7 | 0.00 | 1.88 | 0.00 | 97 | 1012.0 |
| 20260510065553 | 66 | 69 | 0.9 | 1.7 | 0.00 | 1.88 | 0.00 | 97 | 1012.1 |
| 20260510065057 | 66 | 0 | 0.0 | 0.9 | 0.00 | 1.88 | 0.00 | 97 | 1012.1 |
| 20260510064602 | 66 | 0 | 0.0 | 0.9 | 0.00 | 1.88 | 0.00 | 97 | 1012.1 |
| 20260510064050 | 66 | 0 | 0.0 | 0.9 | 0.00 | 1.88 | 0.00 | 97 | 1012.1 |
| 20260510063551 | 66 | 0 | 0.0 | 0.9 | 0.00 | 1.88 | 0.00 | 97 | 1012.0 |
| 20260510063053 | 66 | 69 | 0.0 | 1.7 | 0.00 | 1.88 | 0.00 | 97 | 1011.9 |
| 20260510062551 | 66 | 0 | 0.0 | 1.7 | 0.00 | 1.88 | 0.00 | 97 | 1011.9 |
| 20260510062051 | 66 | 69 | 0.0 | 1.7 | 0.00 | 1.88 | 0.00 | 97 | 1012.0 |
| 20260510061557 | 66 | 0 | 0.0 | 1.7 | 0.00 | 1.88 | 0.00 | 97 | 1012.0 |
| 20260510061051 | 66 | 126 | 0.9 | 1.7 | 0.00 | 1.88 | 0.00 | 97 | 1012.1 |
| 20260510060551 | 66 | 0 | 0.0 | 1.7 | 0.00 | 1.88 | 0.00 | 97 | 1012.1 |
| 20260510060105 | 66 | 0 | 0.0 | 1.7 | 0.00 | 1.88 | 0.00 | 97 | 1012.1 |
| 20260510055550 | 66 | 126 | 0.0 | 0.9 | 0.00 | 1.88 | 0.00 | 97 | 1012.1 |
| 20260510055053 | 67 | 0 | 0.0 | 0.0 | 0.00 | 1.88 | 0.00 | 97 | 1012.1 |
| 20260510054553 | 67 | 0 | 0.0 | 1.7 | 0.00 | 1.88 | 0.00 | 97 | 1012.2 |
| 20260510054050 | 67 | 0 | 0.0 | 1.7 | 0.00 | 1.88 | 0.00 | 97 | 1012.0 |
| 20260510053550 | 67 | 126 | 0.0 | 1.7 | 0.00 | 1.88 | 0.00 | 97 | 1011.9 |
| 20260510053052 | 67 | 0 | 0.0 | 1.7 | 0.00 | 1.88 | 0.00 | 97 | 1011.9 |
| 20260510052553 | 67 | 126 | 0.0 | 1.7 | 0.00 | 1.88 | 0.00 | 97 | 1012.0 |
| 20260510052054 | 67 | 0 | 0.0 | 1.7 | 0.00 | 1.88 | 0.00 | 97 | 1011.9 |
| 20260510051556 | 67 | 0 | 0.0 | 2.6 | 0.00 | 1.88 | 0.00 | 97 | 1011.9 |
| 20260510051054 | 67 | 126 | 0.0 | 2.6 | 0.00 | 1.88 | 0.00 | 97 | 1012.0 |
| 20260510050555 | 67 | 136 | 0.0 | 2.6 | 0.00 | 1.88 | 0.00 | 97 | 1011.9 |
| 20260510045554 | 67 | 0 | 0.0 | 1.7 | 0.00 | 1.88 | 1.88 | 97 | 1012.1 |
| 20260510045051 | 67 | 0 | 0.0 | 4.3 | 0.00 | 1.88 | 1.88 | 97 | 1012.1 |
| 20260510044619 | 67 | 0 | 0.9 | 4.3 | 0.00 | 1.88 | 1.88 | 97 | 1012.0 |
| 20260510044051 | 67 | 0 | 0.0 | 2.6 | 0.00 | 1.88 | 1.88 | 97 | 1012.1 |
| 20260510043551 | 67 | 188 | 0.0 | 5.2 | 0.00 | 1.88 | 1.88 | 97 | 1012.2 |
| 20260510043051 | 67 | 0 | 0.9 | 5.2 | 0.00 | 1.88 | 1.88 | 97 | 1012.3 |
| 20260510042553 | 67 | 143 | 0.0 | 2.6 | 0.00 | 1.88 | 1.88 | 97 | 1012.4 |
| 20260510042053 | 67 | 143 | 0.9 | 2.6 | 0.00 | 1.88 | 1.88 | 97 | 1012.4 |
| 20260510041553 | 67 | 132 | 0.9 | 4.3 | 0.00 | 1.88 | 1.88 | 97 | 1012.2 |
| 20260510041052 | 67 | 170 | 0.9 | 6.1 | 0.00 | 1.88 | 1.88 | 97 | 1012.2 |
| 20260510040551 | 67 | 139 | 0.9 | 6.1 | 0.00 | 1.88 | 1.88 | 97 | 1012.2 |
| 20260510040053 | 67 | 134 | 1.7 | 5.2 | 0.00 | 1.88 | 1.88 | 97 | 1012.0 |
| 20260510035551 | 67 | 162 | 1.7 | 6.1 | 0.00 | 1.88 | 1.88 | 97 | 1012.2 |
| 20260510035051 | 67 | 190 | 1.7 | 6.1 | 0.00 | 1.88 | 1.88 | 97 | 1012.4 |
| 20260510034551 | 67 | 190 | 1.7 | 5.2 | 0.00 | 1.88 | 1.88 | 97 | 1012.3 |
| 20260510034052 | 67 | 211 | 1.7 | 3.5 | 0.00 | 1.88 | 1.88 | 97 | 1012.6 |
| 20260510033554 | 67 | 181 | 0.9 | 3.5 | 0.00 | 1.88 | 1.88 | 97 | 1012.8 |
| 20260510033053 | 67 | 220 | 0.9 | 2.6 | 0.00 | 1.88 | 1.88 | 97 | 1012.9 |
| 20260510032555 | 67 | 194 | 0.9 | 2.6 | 0.00 | 1.88 | 1.88 | 97 | 1012.8 |
| 20260510032052 | 67 | 194 | 0.9 | 1.7 | 0.00 | 1.88 | 1.88 | 97 | 1012.8 |
| 20260510031552 | 67 | 194 | 0.0 | 2.6 | 0.00 | 1.88 | 1.88 | 97 | 1012.8 |
| 20260510031056 | 67 | 194 | 0.9 | 2.6 | 0.00 | 1.88 | 1.88 | 97 | 1012.8 |
| 20260510030554 | 67 | 194 | 0.0 | 0.9 | 0.00 | 1.88 | 1.88 | 96 | 1012.9 |
| 20260510030055 | 67 | 0 | 0.0 | 0.9 | 0.00 | 1.88 | 1.88 | 97 | 1012.9 |
| 20260510025551 | 67 | 0 | 0.0 | 2.6 | 0.00 | 1.88 | 1.88 | 97 | 1012.9 |
| 20260510025052 | 67 | 0 | 0.0 | 2.6 | 0.00 | 1.88 | 1.88 | 97 | 1013.0 |
| 20260510024553 | 67 | 0 | 0.9 | 2.6 | 0.00 | 1.88 | 1.88 | 97 | 1013.0 |
| 20260510024052 | 67 | 194 | 0.9 | 2.6 | 0.00 | 1.88 | 1.88 | 97 | 1012.8 |
| 20260510023552 | 68 | 150 | 0.0 | 2.6 | 0.00 | 1.88 | 1.88 | 97 | 1012.8 |
| 20260510023054 | 67 | 0 | 0.0 | 2.6 | 0.00 | 1.88 | 1.88 | 97 | 1012.5 |
| 20260510022552 | 68 | 120 | 0.0 | 4.3 | 0.00 | 1.88 | 1.88 | 97 | 1012.5 |
| 20260510022051 | 68 | 0 | 0.9 | 4.3 | 0.00 | 1.88 | 1.88 | 97 | 1012.4 |
| 20260510021553 | 68 | 176 | 0.9 | 4.3 | 0.00 | 1.88 | 1.88 | 97 | 1012.3 |
| 20260510021051 | 68 | 0 | 0.9 | 4.3 | 0.00 | 1.88 | 1.88 | 97 | 1012.2 |
| 20260510020551 | 68 | 184 | 0.9 | 4.3 | 0.00 | 1.88 | 1.88 | 96 | 1012.2 |
| 20260510020051 | 68 | 163 | 0.0 | 2.6 | 0.00 | 1.88 | 1.88 | 97 | 1012.3 |
| 20260510015551 | 68 | 152 | 0.0 | 2.6 | 0.00 | 1.88 | 1.88 | 97 | 1012.3 |
| 20260510015051 | 68 | 0 | 0.0 | 6.1 | 0.00 | 1.88 | 1.88 | 96 | 1012.2 |
| 20260510014553 | 68 | 176 | 0.9 | 6.1 | 0.00 | 1.88 | 1.88 | 96 | 1012.1 |
| 20260510014051 | 68 | 121 | 1.7 | 4.3 | 0.00 | 1.88 | 1.88 | 97 | 1012.1 |
| 20260510013552 | 68 | 154 | 0.9 | 5.2 | 0.01 | 1.88 | 1.88 | 97 | 1012.0 |
| 20260510013054 | 68 | 123 | 0.9 | 5.2 | 0.02 | 1.88 | 1.88 | 97 | 1011.9 |
| 20260510012552 | 68 | 138 | 0.9 | 4.3 | 0.02 | 1.88 | 1.88 | 97 | 1012.0 |
| 20260510012052 | 68 | 133 | 0.9 | 7.0 | 0.02 | 1.88 | 1.88 | 97 | 1012.0 |
| 20260510011556 | 68 | 118 | 1.7 | 7.8 | 0.02 | 1.88 | 1.88 | 97 | 1011.9 |
| 20260510011051 | 68 | 130 | 1.7 | 7.8 | 0.02 | 1.88 | 1.88 | 97 | 1011.8 |
| 20260510010551 | 68 | 124 | 0.9 | 6.1 | 0.02 | 1.88 | 1.88 | 97 | 1011.8 |
| 20260510010126 | 68 | 173 | 1.7 | 6.1 | 0.02 | 1.88 | 1.88 | 97 | 1011.8 |
| 20260510005552 | 68 | 151 | 1.7 | 6.1 | 0.02 | 1.88 | 1.88 | 97 | 1011.9 |
| 20260510005051 | 68 | 151 | 0.9 | 5.2 | 0.02 | 1.88 | 1.88 | 97 | 1011.9 |
| 20260510004554 | 68 | 174 | 1.7 | 8.7 | 0.02 | 1.88 | 1.88 | 97 | 1011.9 |
| 20260510004051 | 68 | 158 | 2.6 | 8.7 | 0.02 | 1.88 | 1.88 | 97 | 1011.8 |
| 20260510003552 | 68 | 182 | 1.7 | 6.1 | 0.01 | 1.87 | 1.87 | 97 | 1011.9 |
| 20260510003059 | 68 | 124 | 0.9 | 4.3 | 0.01 | 1.86 | 1.86 | 97 | 1011.9 |
| 20260510002551 | 68 | 162 | 0.9 | 4.3 | 0.01 | 1.86 | 1.86 | 97 | 1012.0 |
| 20260510002051 | 68 | 117 | 0.9 | 3.5 | 0.02 | 1.86 | 1.86 | 97 | 1011.9 |
| 20260510001554 | 68 | 207 | 0.0 | 2.6 | 0.03 | 1.86 | 1.86 | 97 | 1012.0 |
| 20260510001052 | 68 | 159 | 0.9 | 3.5 | 0.04 | 1.86 | 1.86 | 97 | 1011.8 |
| 20260510000551 | 68 | 182 | 0.0 | 4.3 | 0.05 | 1.86 | 1.86 | 97 | 1011.9 |
| 20260510000054 | 68 | 154 | 0.0 | 4.3 | 0.05 | 1.86 | 1.86 | 96 | 1011.8 |
| 20260509235551 | 68 | 148 | 0.0 | 4.3 | 0.06 | 1.87 | 1.86 | 97 | 1011.8 |
| 20260509235051 | 68 | 171 | 0.9 | 5.2 | 0.06 | 1.87 | 1.86 | 97 | 1011.9 |
| 20260509234613 | 68 | 154 | 1.7 | 5.2 | 0.06 | 1.87 | 1.86 | 97 | 1011.8 |
| 20260509234051 | 68 | 139 | 0.9 | 5.2 | 0.06 | 1.87 | 1.86 | 96 | 1011.7 |
| 20260509233552 | 68 | 138 | 1.7 | 5.2 | 0.06 | 1.87 | 1.86 | 96 | 1011.8 |
| 20260509233057 | 68 | 129 | 1.7 | 5.2 | 0.05 | 1.86 | 1.85 | 96 | 1011.8 |
| 20260509232554 | 68 | 124 | 0.9 | 5.2 | 0.04 | 1.85 | 1.84 | 96 | 1011.9 |
| 20260509232051 | 69 | 144 | 0.0 | 3.5 | 0.04 | 1.85 | 1.84 | 97 | 1012.2 |
| 20260509231555 | 69 | 201 | 0.9 | 3.5 | 0.03 | 1.84 | 1.83 | 97 | 1012.2 |
| 20260509231052 | 69 | 163 | 0.9 | 3.5 | 0.02 | 1.83 | 1.82 | 97 | 1012.0 |
| 20260509230551 | 69 | 131 | 0.0 | 2.6 | 0.01 | 1.82 | 1.81 | 97 | 1012.1 |
| 20260509230053 | 69 | 0 | 0.0 | 3.5 | 0.01 | 1.82 | 1.81 | 97 | 1012.1 |
| 20260509225553 | 69 | 0 | 1.7 | 6.1 | 0.00 | 1.83 | 1.80 | 97 | 1012.0 |
| 20260509225051 | 69 | 184 | 0.9 | 6.1 | 0.01 | 1.83 | 1.80 | 97 | 1011.9 |
| 20260509224553 | 69 | 190 | 1.7 | 6.1 | 0.01 | 1.83 | 1.80 | 97 | 1011.9 |
| 20260509224054 | 69 | 128 | 0.9 | 4.3 | 0.01 | 1.83 | 1.80 | 97 | 1011.8 |
| 20260509223552 | 69 | 146 | 0.9 | 4.3 | 0.02 | 1.83 | 1.80 | 97 | 1011.8 |
| 20260509223052 | 69 | 202 | 0.9 | 3.5 | 0.02 | 1.83 | 1.80 | 97 | 1011.7 |
| 20260509222554 | 69 | 192 | 0.9 | 3.5 | 0.02 | 1.83 | 1.80 | 97 | 1011.5 |
| 20260509222051 | 69 | 146 | 0.9 | 3.5 | 0.02 | 1.83 | 1.80 | 97 | 1011.2 |
| 20260509221554 | 69 | 144 | 0.9 | 2.6 | 0.02 | 1.83 | 1.80 | 97 | 1011.2 |
| 20260509221052 | 69 | 144 | 0.9 | 2.6 | 0.02 | 1.83 | 1.80 | 97 | 1011.1 |
| 20260509220551 | 69 | 0 | 0.0 | 1.7 | 0.02 | 1.83 | 1.80 | 97 | 1011.0 |
| 20260509215551 | 68 | 209 | 0.0 | 2.6 | 0.02 | 2.00 | 1.80 | 97 | 1011.5 |
| 20260509215052 | 68 | 217 | 0.0 | 7.0 | 0.01 | 1.99 | 1.79 | 97 | 1011.5 |
| 20260509214554 | 68 | 249 | 0.9 | 7.0 | 0.01 | 1.99 | 1.79 | 97 | 1011.5 |
| 20260509214051 | 68 | 202 | 1.7 | 6.1 | 0.01 | 1.99 | 1.79 | 97 | 1011.7 |
| 20260509213551 | 68 | 192 | 0.9 | 6.1 | 0.00 | 1.98 | 1.78 | 97 | 1011.6 |
| 20260509213057 | 68 | 165 | 0.9 | 6.1 | 0.00 | 1.98 | 1.78 | 97 | 1011.4 |
| 20260509212551 | 68 | 192 | 1.7 | 8.7 | 0.00 | 1.98 | 1.78 | 97 | 1011.0 |
| 20260509212051 | 68 | 160 | 2.6 | 8.7 | 0.00 | 1.98 | 1.78 | 97 | 1011.1 |
| 20260509211556 | 68 | 187 | 1.7 | 7.0 | 0.00 | 1.98 | 1.78 | 97 | 1011.1 |
| 20260509211055 | 68 | 198 | 2.6 | 7.8 | 0.00 | 1.98 | 1.78 | 97 | 1010.9 |
| 20260509210552 | 68 | 175 | 0.9 | 7.8 | 0.00 | 1.98 | 1.78 | 97 | 1010.9 |
| 20260509210052 | 68 | 163 | 2.6 | 7.0 | 0.01 | 1.98 | 1.78 | 97 | 1010.9 |
| 20260509205551 | 68 | 199 | 1.7 | 7.0 | 0.02 | 2.45 | 1.78 | 97 | 1010.7 |
| 20260509205054 | 68 | 97 | 0.9 | 7.0 | 0.03 | 2.45 | 1.78 | 97 | 1010.7 |
| 20260509204601 | 68 | 127 | 1.7 | 7.0 | 0.04 | 2.45 | 1.78 | 97 | 1010.7 |
| 20260509204052 | 68 | 146 | 1.7 | 5.2 | 0.05 | 2.45 | 1.78 | 97 | 1010.9 |
| 20260509203552 | 68 | 136 | 1.7 | 5.2 | 0.06 | 2.45 | 1.78 | 97 | 1010.7 |
| 20260509203138 | 68 | 167 | 0.9 | 3.5 | 0.07 | 2.45 | 1.78 | 97 | 1011.1 |
| 20260509202551 | 67 | 130 | 1.7 | 3.5 | 0.07 | 2.45 | 1.78 | 97 | 1011.4 |